Overview Statistics Trail Chart Weather Telemetry Raw packets
 

This is the latest recevied weather packets stored in our database for station/object C31FR-13. If no packets are shown the sender has not sent any weather packets the latest 10 day(s).

<< 12 13 14 15 16 17 >>
Time Temp. Humidity Pressure Rain* Wind** Luminosity Snow
1788238862 18.33° C 67% 1024 hPa - - - -
1788238262 19.44° C 64% 1024 hPa - - - -
1788237362 19.44° C 64% 1023.9 hPa - - - -
1788235862 19.44° C 64% 1024 hPa - - - -
1788235562 19.44° C 64% 1024.1 hPa - - - -
1788234963 19.44° C 65% 1024 hPa - - - -
1788234362 19.44° C 64% 1024.1 hPa - - - -
1788234062 19.44° C 64% 1024.1 hPa - - - -
1788231963 19.44° C 64% 1024 hPa - - - -
1788230163 19.44° C 65% 1024.1 hPa - - - -
1788228363 19.44° C 63% 1024.4 hPa - - - -
1788228062 20° C 62% 1024.3 hPa - - - -
1788226562 20° C 62% 1024.2 hPa - - - -
1788221762 20.56° C 60% 1024.4 hPa - - - -
1788219663 21.11° C 60% 1024.5 hPa - - - -
1788218762 21.11° C 60% 1024.4 hPa - - - -
1788218162 21.11° C 61% 1024.4 hPa - - - -
1788217876 21.67° C 59% 1024.4 hPa - - - -
1788216662 21.11° C 59% 1024.4 hPa - - - -
1788216363 21.67° C 59% 1024.3 hPa - - - -
1788215762 21.67° C 58% 1024.1 hPa - - - -
1788214862 22.22° C 56% 1024.1 hPa - - - -
1788210363 22.78° C 51% 1023.3 hPa - - - -
1788210063 22.78° C 50% 1023.2 hPa - - - -
1788209165 23.33° C 49% 1023.2 hPa - - - -

* Rain since midnight (hover to see other rain measurements)
** Current wind speed in m/s (hover to see current wind gust speed)